| time (UTC) | temp F | wind direction | speed MPH | gust MPH | rain 1hr in | rain 24hr in | rain mn in | humidity % | barometer mb |
| 20260505014546 | 60 | 360 | 2.0 | 10.0 | 0.00 | 0.00 | 0.00 | 49 | 1010.1 |
| 20260505014051 | 60 | 360 | 3.0 | 10.0 | 0.00 | 0.00 | 0.00 | 49 | 1010.0 |
| 20260505013530 | 60 | 360 | 2.0 | 8.0 | 0.00 | 0.00 | 0.00 | 48 | 1010.0 |
| 20260505013059 | 61 | 360 | 3.0 | 12.0 | 0.00 | 0.00 | 0.00 | 48 | 1009.8 |
| 20260505012530 | 61 | 360 | 3.0 | 15.0 | 0.00 | 0.00 | 0.00 | 48 | 1009.7 |
| 20260505012030 | 61 | 360 | 3.0 | 15.0 | 0.00 | 0.00 | 0.00 | 47 | 1009.6 |
| 20260505011544 | 61 | 0 | 4.0 | 15.0 | 0.00 | 0.00 | 0.00 | 47 | 1009.6 |
| 20260505011031 | 61 | 360 | 5.0 | 11.0 | 0.00 | 0.00 | 0.00 | 47 | 1009.5 |
| 20260505010530 | 61 | 360 | 2.0 | 11.0 | 0.00 | 0.00 | 0.00 | 47 | 1009.5 |
| 20260505010041 | 62 | 360 | 4.0 | 11.0 | 0.00 | 0.00 | 0.00 | 46 | 1009.4 |
| 20260505005534 | 62 | 360 | 3.0 | 13.0 | 0.00 | 0.00 | 0.00 | 46 | 1009.3 |
| 20260505005031 | 62 | 360 | 4.0 | 13.0 | 0.00 | 0.00 | 0.00 | 46 | 1009.1 |
| 20260505004538 | 62 | 360 | 5.0 | 13.0 | 0.00 | 0.00 | 0.00 | 46 | 1009.1 |
| 20260505004031 | 62 | 360 | 3.0 | 11.0 | 0.00 | 0.00 | 0.00 | 46 | 1008.9 |
| 20260505003533 | 62 | 360 | 3.0 | 11.0 | 0.00 | 0.00 | 0.00 | 45 | 1008.9 |
| 20260505003044 | 63 | 360 | 3.0 | 11.0 | 0.00 | 0.00 | 0.00 | 45 | 1008.7 |
| 20260505002533 | 63 | 360 | 3.0 | 11.0 | 0.00 | 0.00 | 0.00 | 45 | 1008.7 |
| 20260505002031 | 63 | 360 | 3.0 | 11.0 | 0.00 | 0.00 | 0.00 | 45 | 1008.5 |
| 20260505001544 | 63 | 360 | 3.0 | 12.0 | 0.00 | 0.00 | 0.00 | 44 | 1008.3 |
| 20260505001034 | 64 | 360 | 4.0 | 12.0 | 0.00 | 0.00 | 0.00 | 43 | 1008.3 |
| 20260505000533 | 64 | 360 | 4.0 | 14.0 | 0.00 | 0.00 | 0.00 | 43 | 1008.1 |
| 20260505000053 | 64 | 360 | 5.0 | 14.0 | 0.00 | 0.00 | 0.00 | 42 | 1008.1 |
| 20260504235535 | 64 | 360 | 2.0 | 13.0 | 0.00 | 0.00 | 0.00 | 41 | 1007.9 |
| 20260504235031 | 65 | 360 | 3.0 | 16.0 | 0.00 | 0.00 | 0.00 | 40 | 1007.8 |
| 20260504234540 | 65 | 360 | 9.0 | 16.0 | 0.00 | 0.00 | 0.00 | 40 | 1007.7 |
| 20260504234031 | 65 | 360 | 5.0 | 16.0 | 0.00 | 0.00 | 0.00 | 40 | 1007.7 |
| 20260504233534 | 66 | 360 | 5.0 | 16.0 | 0.00 | 0.00 | 0.00 | 40 | 1007.6 |
| 20260504233050 | 66 | 360 | 4.0 | 17.0 | 0.00 | 0.00 | 0.00 | 39 | 1007.4 |
| 20260504232531 | 66 | 360 | 6.0 | 17.0 | 0.00 | 0.00 | 0.00 | 39 | 1007.4 |
| 20260504232030 | 67 | 221 | 5.0 | 15.0 | 0.00 | 0.00 | 0.00 | 38 | 1007.3 |
| 20260504231544 | 67 | 147 | 3.0 | 13.0 | 0.00 | 0.00 | 0.00 | 37 | 1007.2 |
| 20260504231030 | 67 | 207 | 6.0 | 14.0 | 0.00 | 0.00 | 0.00 | 36 | 1007.1 |
| 20260504230530 | 68 | 360 | 5.0 | 14.0 | 0.00 | 0.00 | 0.00 | 35 | 1006.9 |
| 20260504230044 | 69 | 360 | 3.0 | 12.0 | 0.00 | 0.00 | 0.00 | 34 | 1006.8 |
| 20260504225532 | 69 | 360 | 3.0 | 12.0 | 0.00 | 0.00 | 0.00 | 32 | 1006.7 |
| 20260504225030 | 70 | 248 | 4.0 | 14.0 | 0.00 | 0.00 | 0.00 | 31 | 1006.6 |
| 20260504224543 | 70 | 214 | 5.0 | 15.0 | 0.00 | 0.00 | 0.00 | 30 | 1006.6 |
| 20260504224032 | 70 | 273 | 8.0 | 15.0 | 0.00 | 0.00 | 0.00 | 30 | 1006.5 |
| 20260504223601 | 70 | 220 | 5.0 | 13.0 | 0.00 | 0.00 | 0.00 | 30 | 1006.4 |
| 20260504223055 | 71 | 360 | 3.0 | 11.0 | 0.00 | 0.00 | 0.00 | 30 | 1006.5 |
| 20260504222534 | 71 | 360 | 7.0 | 11.0 | 0.00 | 0.00 | 0.00 | 29 | 1006.4 |
| 20260504222032 | 71 | 360 | 4.0 | 11.0 | 0.00 | 0.00 | 0.00 | 30 | 1006.5 |
| 20260504221545 | 71 | 360 | 4.0 | 13.0 | 0.00 | 0.00 | 0.00 | 29 | 1006.4 |
| 20260504221034 | 71 | 273 | 5.0 | 19.0 | 0.00 | 0.00 | 0.00 | 29 | 1006.4 |
| 20260504220533 | 71 | 232 | 5.0 | 19.0 | 0.00 | 0.00 | 0.00 | 29 | 1006.5 |
| 20260504220046 | 71 | 196 | 6.0 | 19.0 | 0.00 | 0.00 | 0.00 | 29 | 1006.6 |
| 20260504215533 | 71 | 324 | 4.0 | 24.0 | 0.00 | 0.00 | 0.00 | 29 | 1006.5 |
| 20260504215034 | 71 | 263 | 5.0 | 24.0 | 0.00 | 0.00 | 0.00 | 28 | 1006.6 |
| 20260504214548 | 71 | 213 | 5.0 | 19.0 | 0.00 | 0.00 | 0.00 | 29 | 1006.5 |
| 20260504214032 | 71 | 270 | 7.0 | 19.0 | 0.00 | 0.00 | 0.00 | 29 | 1006.4 |
| 20260504213533 | 72 | 220 | 8.0 | 17.0 | 0.00 | 0.00 | 0.00 | 28 | 1006.4 |
| 20260504213042 | 72 | 240 | 7.0 | 17.0 | 0.00 | 0.00 | 0.00 | 28 | 1006.5 |
| 20260504212534 | 72 | 242 | 7.0 | 15.0 | 0.00 | 0.00 | 0.00 | 29 | 1006.5 |
| 20260504212034 | 72 | 198 | 7.0 | 20.0 | 0.00 | 0.00 | 0.00 | 29 | 1006.5 |
| 20260504211552 | 71 | 309 | 7.0 | 20.0 | 0.00 | 0.00 | 0.00 | 28 | 1006.4 |
| 20260504211036 | 71 | 360 | 7.0 | 20.0 | 0.00 | 0.00 | 0.00 | 29 | 1006.5 |
| 20260504210537 | 71 | 250 | 7.0 | 17.0 | 0.00 | 0.00 | 0.00 | 29 | 1006.5 |
| 20260504210046 | 71 | 95 | 7.0 | 14.0 | 0.00 | 0.00 | 0.00 | 29 | 1006.5 |
| 20260504205533 | 71 | 254 | 6.0 | 14.0 | 0.00 | 0.00 | 0.00 | 28 | 1006.5 |
| 20260504205033 | 71 | 360 | 6.0 | 12.0 | 0.00 | 0.00 | 0.00 | 28 | 1006.6 |
| 20260504204545 | 71 | 224 | 7.0 | 16.0 | 0.00 | 0.00 | 0.00 | 28 | 1006.6 |
| 20260504204030 | 72 | 360 | 7.0 | 20.0 | 0.00 | 0.00 | 0.00 | 28 | 1006.5 |
| 20260504203533 | 72 | 0 | 6.0 | 20.0 | 0.00 | 0.00 | 0.00 | 28 | 1006.5 |
| 20260504203042 | 72 | 360 | 5.0 | 18.0 | 0.00 | 0.00 | 0.00 | 28 | 1006.5 |
| 20260504202534 | 72 | 360 | 5.0 | 17.0 | 0.00 | 0.00 | 0.00 | 27 | 1006.4 |
| 20260504202029 | 72 | 360 | 7.0 | 17.0 | 0.00 | 0.00 | 0.00 | 27 | 1006.4 |
| 20260504201548 | 72 | 255 | 6.0 | 21.0 | 0.00 | 0.00 | 0.00 | 27 | 1006.4 |
| 20260504201037 | 72 | 229 | 6.0 | 21.0 | 0.00 | 0.00 | 0.00 | 28 | 1006.5 |
| 20260504200530 | 71 | 232 | 8.0 | 23.0 | 0.00 | 0.00 | 0.00 | 27 | 1006.6 |
| 20260504200047 | 71 | 262 | 9.0 | 23.0 | 0.00 | 0.00 | 0.00 | 26 | 1006.6 |
| 20260504195532 | 71 | 360 | 9.0 | 17.0 | 0.00 | 0.00 | 0.00 | 27 | 1006.7 |
| 20260504195031 | 70 | 360 | 7.0 | 18.0 | 0.00 | 0.00 | 0.00 | 27 | 1006.5 |
| 20260504194550 | 71 | 360 | 8.0 | 18.0 | 0.00 | 0.00 | 0.00 | 26 | 1006.7 |
| 20260504194032 | 71 | 360 | 10.0 | 18.0 | 0.00 | 0.00 | 0.00 | 26 | 1006.7 |
| 20260504193534 | 71 | 360 | 8.0 | 17.0 | 0.00 | 0.00 | 0.00 | 28 | 1006.7 |
| 20260504193044 | 71 | 360 | 7.0 | 16.0 | 0.00 | 0.00 | 0.00 | 26 | 1006.7 |
| 20260504192532 | 71 | 360 | 8.0 | 17.0 | 0.00 | 0.00 | 0.00 | 27 | 1006.5 |
| 20260504192032 | 71 | 360 | 4.0 | 21.0 | 0.00 | 0.00 | 0.00 | 27 | 1006.6 |
| 20260504191554 | 71 | 360 | 5.0 | 21.0 | 0.00 | 0.00 | 0.00 | 26 | 1006.6 |
| 20260504191031 | 71 | 360 | 8.0 | 21.0 | 0.00 | 0.00 | 0.00 | 26 | 1006.8 |
| 20260504190534 | 72 | 236 | 6.0 | 16.0 | 0.00 | 0.00 | 0.00 | 26 | 1006.7 |
| 20260504190038 | 71 | 360 | 5.0 | 16.0 | 0.00 | 0.00 | 0.00 | 27 | 1006.7 |
| 20260504185531 | 71 | 360 | 7.0 | 21.0 | 0.00 | 0.00 | 0.00 | 28 | 1006.9 |
| 20260504185031 | 70 | 360 | 11.0 | 21.0 | 0.00 | 0.00 | 0.00 | 27 | 1007.0 |
| 20260504184602 | 70 | 360 | 7.0 | 20.0 | 0.00 | 0.00 | 0.00 | 28 | 1007.0 |
| 20260504184032 | 71 | 360 | 9.0 | 20.0 | 0.00 | 0.00 | 0.00 | 29 | 1007.1 |
| 20260504183532 | 70 | 360 | 8.0 | 19.0 | 0.00 | 0.00 | 0.00 | 27 | 1006.9 |
| 20260504183045 | 70 | 360 | 10.0 | 22.0 | 0.00 | 0.00 | 0.00 | 28 | 1006.9 |
| 20260504182532 | 70 | 360 | 12.0 | 22.0 | 0.00 | 0.00 | 0.00 | 27 | 1007.1 |
| 20260504182031 | 71 | 360 | 5.0 | 17.0 | 0.00 | 0.00 | 0.00 | 28 | 1007.0 |
| 20260504181547 | 70 | 360 | 8.0 | 18.0 | 0.00 | 0.00 | 0.00 | 29 | 1007.0 |
| 20260504181034 | 71 | 263 | 5.0 | 19.0 | 0.00 | 0.00 | 0.00 | 28 | 1007.2 |
| 20260504180530 | 70 | 360 | 9.0 | 19.0 | 0.00 | 0.00 | 0.00 | 27 | 1007.1 |
| 20260504180044 | 69 | 360 | 5.0 | 19.0 | 0.00 | 0.00 | 0.00 | 29 | 1007.1 |
| 20260504175533 | 69 | 360 | 6.0 | 19.0 | 0.00 | 0.00 | 0.00 | 30 | 1007.4 |
| 20260504175033 | 69 | 360 | 9.0 | 19.0 | 0.00 | 0.00 | 0.00 | 28 | 1007.3 |
| 20260504174548 | 69 | 360 | 11.0 | 19.0 | 0.00 | 0.00 | 0.00 | 29 | 1007.4 |
| 20260504174033 | 69 | 360 | 6.0 | 18.0 | 0.00 | 0.00 | 0.00 | 29 | 1007.4 |
| 20260504173532 | 69 | 360 | 10.0 | 18.0 | 0.00 | 0.00 | 0.00 | 28 | 1007.5 |
| 20260504173045 | 69 | 360 | 4.0 | 19.0 | 0.00 | 0.00 | 0.00 | 31 | 1007.3 |
| 20260504172531 | 69 | 360 | 8.0 | 19.0 | 0.00 | 0.00 | 0.00 | 32 | 1007.6 |
| 20260504172031 | 69 | 360 | 5.0 | 21.0 | 0.00 | 0.00 | 0.00 | 29 | 1007.6 |
| 20260504171546 | 68 | 360 | 10.0 | 21.0 | 0.00 | 0.00 | 0.00 | 29 | 1007.4 |
| 20260504171034 | 68 | 360 | 10.0 | 21.0 | 0.00 | 0.00 | 0.00 | 30 | 1007.5 |
| 20260504170533 | 68 | 360 | 9.0 | 21.0 | 0.00 | 0.00 | 0.00 | 30 | 1007.6 |
| 20260504151032 | 66 | 360 | 7.0 | 21.0 | 0.00 | 0.00 | 0.00 | 32 | 1008.7 |
| 20260504150534 | 65 | 360 | 7.0 | 21.0 | 0.00 | 0.00 | 0.00 | 33 | 1008.8 |
| 20260504141031 | 63 | 360 | 5.0 | 18.0 | 0.00 | 0.00 | 0.00 | 37 | 1009.1 |
| 20260504140531 | 62 | 360 | 4.0 | 18.0 | 0.00 | 0.00 | 0.00 | 38 | 1009.3 |
| 20260504130533 | 58 | 360 | 5.0 | 15.0 | 0.00 | 0.00 | 0.00 | 42 | 1010.0 |
| 20260504110531 | 48 | 360 | 2.0 | 8.0 | 0.00 | 0.00 | 0.00 | 56 | 1010.3 |
| 20260504100532 | 46 | 360 | 1.0 | 4.0 | 0.00 | 0.00 | 0.00 | 56 | 1010.5 |
| 20260504081552 | 44 | 360 | 0.0 | 3.0 | 0.00 | 0.00 | 0.00 | 64 | 1010.3 |
| 20260504081034 | 44 | 0 | 1.0 | 3.0 | 0.00 | 0.00 | 0.00 | 61 | 1010.2 |
| 20260504080538 | 43 | 0 | 0.0 | 2.0 | 0.00 | 0.00 | 0.00 | 65 | 1010.2 |
| 20260504050534 | 38 | 0 | 0.0 | 3.0 | 0.00 | 0.00 | 0.00 | 71 | 1010.2 |
| 20260504045534 | 37 | 360 | 0.0 | 3.0 | 0.00 | 0.00 | 0.00 | 73 | 1010.2 |
| 20260504045034 | 37 | 0 | 0.0 | 3.0 | 0.00 | 0.00 | 0.00 | 73 | 1010.2 |
| 20260504044546 | 38 | 0 | 1.0 | 3.0 | 0.00 | 0.00 | 0.00 | 71 | 1010.3 |
| 20260504044032 | 37 | 0 | 0.0 | 2.0 | 0.00 | 0.00 | 0.00 | 73 | 1010.1 |
| 20260504043532 | 37 | 0 | 0.0 | 1.0 | 0.00 | 0.00 | 0.00 | 73 | 1010.2 |
| 20260504043043 | 37 | 0 | 0.0 | 0.0 | 0.00 | 0.00 | 0.00 | 74 | 1010.1 |
| 20260504042534 | 37 | 0 | 0.0 | 4.0 | 0.00 | 0.00 | 0.00 | 73 | 1010.2 |
| 20260504042034 | 37 | 0 | 0.0 | 4.0 | 0.00 | 0.00 | 0.00 | 74 | 1010.1 |
| 20260504041541 | 37 | 0 | 0.0 | 1.0 | 0.00 | 0.00 | 0.00 | 75 | 1010.2 |
| 20260504041034 | 36 | 360 | 0.0 | 1.0 | 0.00 | 0.00 | 0.00 | 75 | 1010.1 |
| 20260504040534 | 36 | 0 | 0.0 | 0.0 | 0.00 | 0.00 | 0.00 | 75 | 1010.0 |
| 20260504040044 | 37 | 0 | 0.0 | 0.0 | 0.00 | 0.00 | 0.00 | 74 | 1009.9 |
| 20260504035533 | 37 | 0 | 0.0 | 0.0 | 0.00 | 0.00 | 0.00 | 74 | 1009.9 |
| 20260504035035 | 37 | 0 | 0.0 | 0.0 | 0.00 | 0.00 | 0.00 | 74 | 1009.9 |
| 20260504034544 | 37 | 0 | 0.0 | 0.0 | 0.00 | 0.00 | 0.00 | 73 | 1009.8 |
| 20260504034035 | 37 | 0 | 0.0 | 0.0 | 0.00 | 0.00 | 0.00 | 72 | 1009.8 |
| 20260504033534 | 37 | 0 | 0.0 | 0.0 | 0.00 | 0.00 | 0.00 | 72 | 1009.7 |
| 20260504033052 | 38 | 0 | 0.0 | 0.0 | 0.00 | 0.00 | 0.00 | 72 | 1009.7 |
| 20260504032533 | 38 | 0 | 0.0 | 0.0 | 0.00 | 0.00 | 0.00 | 71 | 1009.8 |
| 20260504032034 | 38 | 0 | 0.0 | 0.0 | 0.00 | 0.00 | 0.00 | 71 | 1009.8 |
| 20260504031544 | 38 | 0 | 0.0 | 0.0 | 0.00 | 0.00 | 0.00 | 71 | 1009.7 |
| 20260504031034 | 38 | 0 | 0.0 | 0.0 | 0.00 | 0.00 | 0.00 | 71 | 1009.8 |
| 20260504030534 | 38 | 0 | 0.0 | 0.0 | 0.00 | 0.00 | 0.00 | 70 | 1009.8 |
| 20260504030052 | 38 | 0 | 0.0 | 0.0 | 0.00 | 0.00 | 0.00 | 70 | 1009.8 |
| 20260504025533 | 38 | 0 | 0.0 | 0.0 | 0.00 | 0.00 | 0.00 | 69 | 1009.7 |
| 20260504025034 | 39 | 0 | 0.0 | 0.0 | 0.00 | 0.00 | 0.00 | 69 | 1009.6 |
| 20260504024553 | 39 | 0 | 0.0 | 0.0 | 0.00 | 0.00 | 0.00 | 69 | 1009.6 |
| 20260504024033 | 39 | 0 | 0.0 | 0.0 | 0.00 | 0.00 | 0.00 | 69 | 1009.6 |
| 20260504023534 | 39 | 0 | 0.0 | 0.0 | 0.00 | 0.00 | 0.00 | 69 | 1009.6 |
| 20260504023047 | 39 | 0 | 0.0 | 0.0 | 0.00 | 0.00 | 0.00 | 68 | 1009.6 |
| 20260504022536 | 39 | 0 | 0.0 | 0.0 | 0.00 | 0.00 | 0.00 | 67 | 1009.6 |
| 20260504022035 | 39 | 0 | 0.0 | 0.0 | 0.00 | 0.00 | 0.00 | 67 | 1009.6 |
| 20260504021551 | 40 | 0 | 0.0 | 0.0 | 0.00 | 0.00 | 0.00 | 67 | 1009.6 |
| 20260504021036 | 40 | 0 | 0.0 | 0.0 | 0.00 | 0.00 | 0.00 | 65 | 1009.5 |
| 20260504020533 | 40 | 0 | 0.0 | 0.0 | 0.00 | 0.00 | 0.00 | 66 | 1009.5 |
| 20260504020051 | 40 | 0 | 0.0 | 0.0 | 0.00 | 0.00 | 0.00 | 65 | 1009.5 |
| 20260504015534 | 40 | 0 | 0.0 | 0.0 | 0.00 | 0.00 | 0.00 | 65 | 1009.5 |
| 20260504015034 | 40 | 0 | 0.0 | 0.0 | 0.00 | 0.00 | 0.00 | 63 | 1009.5 |